Location: Shandelee
(41.8790°N, 74.8713°W)
Time: 03:09:16
(UTC+00:00)

Cosmos 1656 - Pass Details

Date: 29 October 2020
Orbit: 796 x 851 km, 71.1° (Epoch: 23 November)

Event Time Altitude Azimuth Distance (km) Brightness Sun altitude
Rises 23:18:29 0° 217° (SW) 3,334 7.4 -15.7°
Reaches altitude 10° 23:20:57 10° 222° (SW) 2,414 6.7 -16.2°
Maximum altitude 23:26:21 52° 298° (WNW) 1,028 4.5 -17.2°
Drops below altitude 10° 23:31:51 10° 15° (NNE) 2,464 5.9 -18.2°
Sets 23:34:24 0° 20° (NNE) 3,409 6.6 -18.7°
